Regional Weather Roundup
Issued by NWS

Home | Current Version | Previous Version | Graphics & Text | Print | Product List | Glossary On
Versions: 1 2 3 4 5 6 7 8 9 10 11 12 13 14 15 16 17 18 19 20 21 22 23 24 25 26 27 28 29 30 31 32 33 34 35 36 37 38 39 40 41 42 43 44 45 46 47 48 49 50
000
ASUS43 KBIS 190310
RWRND

NORTH DAKOTA REGIONAL WEATHER ROUNDUP
NATIONAL WEATHER SERVICE BISMARCK ND
900 PM CST WED JAN 18 2017

NOTE: "FAIR" INDICATES FEW OR NO CLOUDS BELOW 12,000 FEET WITH NO
SIGNIFICANT WEATHER AND/OR OBSTRUCTIONS TO VISIBILITY.


NDZ001>003-009>011-017-190400-
NORTHWEST NORTH DAKOTA

CITY           SKY/WX    TMP DP  RH WIND       PRES   REMARKS
WILLISTON      FAIR      28  24  85 SW5       29.55F
MINOT          FAIR      37  27  67 SW17      29.51F
MINOT AFB      CLOUDY    34  27  74 SW9       29.50F
$$

NDZ018>021-031>035-040>046-190400-
SOUTHWEST NORTH DAKOTA

CITY           SKY/WX    TMP DP  RH WIND       PRES   REMARKS
BISMARCK       FAIR      20  14  77 SE7       29.63F WCI  11
DICKINSON      FAIR      34  22  61 W6        29.55F
GARRISON         N/A     29  24  82 CALM      29.56F
HETTINGER ARPT CLOUDY    29  21  72 SE6       29.60F
$$

NDZ004>008-012>016-024-026-027-054-190400-
NORTHEAST NORTH DAKOTA

CITY           SKY/WX    TMP DP  RH WIND       PRES   REMARKS
GRAND FORKS    CLOUDY    27  20  75 S10       29.65F WCI  17
GRND FRKS AFB  CLOUDY    25  21  85 S13       29.64F WCI  14
DEVILS LAKE    FAIR      34  24  67 S9        29.59F
$$

NDZ022-023-025-028>030-036>039-047>053-190400-
SOUTHEAST NORTH DAKOTA

CITY           SKY/WX    TMP DP  RH WIND       PRES   REMARKS
FARGO          CLOUDY    32  26  78 S10       29.71S
JAMESTOWN      FAIR      27  22  81 S10       29.63F WCI  17
$$




USA.gov is the U.S. government's official web portal to all federal, state and local government web resources and services.